Tiempo cada hora Barra Bonita

Hoy, 1 Marzo, Lunes

Tiempo Temperatura Precipitaciones Viento Presión Humedad
00:00 +21°C° 0 mm 2 mps 721 mmHg 92%
01:00 +21°C° 0 mm 2 mps 720 mmHg 93%
02:00 +21°C° 0 mm 2 mps 720 mmHg 94%
03:00 +20°C° 0 mm 2 mps 720 mmHg 95%
04:00 +20°C° 0 mm 2 mps 720 mmHg 95%
05:00 +20°C° 0 mm 2 mps 720 mmHg 95%
06:00 +20°C° 0 mm 2 mps 720 mmHg 95%
07:00 +23°C° 0.1 mm 2 mps 721 mmHg 92%
08:00 +24°C° 0.1 mm 2 mps 721 mmHg 88%
09:00 +25°C° 0.1 mm 2 mps 722 mmHg 84%
10:00 +26°C° 0.7 mm 2 mps 722 mmHg 81%
11:00 +28°C° 0.7 mm 3 mps 721 mmHg 78%
12:00 +29°C° 0.7 mm 3 mps 721 mmHg 75%
13:00 +29°C° 0.4 mm 3 mps 721 mmHg 73%
14:00 +29°C° 0.4 mm 2 mps 720 mmHg 70%
15:00 +30°C° 0.4 mm 2 mps 719 mmHg 68%
16:00 +29°C° 0.4 mm 2 mps 719 mmHg 73%
17:00 +28°C° 0.4 mm 1 mps 719 mmHg 79%
18:00 +27°C° 0.4 mm 1 mps 719 mmHg 84%
19:00 +26°C° 0.2 mm 1 mps 719 mmHg 86%
20:00 +25°C° 0.2 mm 1 mps 720 mmHg 88%
21:00 +24°C° 0.2 mm 1 mps 720 mmHg 90%
22:00 +23°C° 0.1 mm 1 mps 720 mmHg 91%
23:00 +23°C° 0.1 mm 1 mps 721 mmHg 91%

Mañana, 2 Marzo, Martes

Tiempo Temperatura Precipitaciones Viento Presión Humedad
00:00 +23°C° 0.1 mm 1 mps 721 mmHg 92%
01:00 +22°C° 0.1 mm 1 mps 720 mmHg 93%
02:00 +22°C° 0.1 mm 1 mps 720 mmHg 93%
03:00 +22°C° 0.1 mm 1 mps 720 mmHg 94%
04:00 +22°C° 0 mm 1 mps 720 mmHg 94%
05:00 +22°C° 0 mm 1 mps 721 mmHg 94%
06:00 +21°C° 0 mm 1 mps 721 mmHg 95%
07:00 +23°C° 0 mm 2 mps 722 mmHg 90%
08:00 +25°C° 0 mm 2 mps 722 mmHg 86%
09:00 +26°C° 0 mm 3 mps 723 mmHg 81%
10:00 +27°C° 0.5 mm 3 mps 722 mmHg 79%
11:00 +28°C° 0.5 mm 3 mps 722 mmHg 76%
12:00 +29°C° 0.5 mm 3 mps 722 mmHg 74%
13:00 +29°C° 0.6 mm 3 mps 722 mmHg 73%
14:00 +29°C° 0.6 mm 2 mps 721 mmHg 72%
15:00 +29°C° 0.6 mm 2 mps 720 mmHg 71%
16:00 +29°C° 0.6 mm 2 mps 720 mmHg 75%
17:00 +28°C° 0.6 mm 1 mps 720 mmHg 79%
18:00 +27°C° 0.6 mm 1 mps 720 mmHg 83%
19:00 +26°C° 0 mm 1 mps 721 mmHg 85%
20:00 +25°C° 0 mm 1 mps 721 mmHg 86%
21:00 +24°C° 0 mm 1 mps 722 mmHg 88%
22:00 +23°C° 0 mm 1 mps 722 mmHg 88%
23:00 +23°C° 0 mm 1 mps 722 mmHg 89%

Pasado mañana, 3 Marzo, Miércoles

Tiempo Temperatura Precipitaciones Viento Presión Humedad
00:00 +23°C° 0 mm 1 mps 722 mmHg 90%
01:00 +20°C° 0 mm 0 mps 722 mmHg 91%
02:00 +20°C° 0 mm 0 mps 722 mmHg 91%
03:00 +20°C° 0 mm 0 mps 722 mmHg 92%
04:00 +21°C° 0 mm 1 mps 722 mmHg 92%
05:00 +21°C° 0 mm 1 mps 722 mmHg 92%
06:00 +21°C° 0 mm 1 mps 723 mmHg 92%
07:00 +22°C° 0 mm 1 mps 723 mmHg 87%
08:00 +24°C° 0 mm 1 mps 724 mmHg 82%
09:00 +25°C° 0 mm 1 mps 724 mmHg 77%
10:00 +27°C° 0.1 mm 2 mps 724 mmHg 73%
11:00 +28°C° 0.1 mm 3 mps 724 mmHg 69%
12:00 +29°C° 0.1 mm 3 mps 724 mmHg 65%
13:00 +29°C° 0.5 mm 3 mps 723 mmHg 67%
14:00 +29°C° 0.5 mm 2 mps 723 mmHg 69%
15:00 +29°C° 0.5 mm 2 mps 722 mmHg 71%
16:00 +28°C° 0.6 mm 2 mps 722 mmHg 76%
17:00 +27°C° 0.6 mm 1 mps 722 mmHg 82%
18:00 +24°C° 0.6 mm 0 mps 721 mmHg 87%
19:00 +23°C° 0.5 mm 0 mps 722 mmHg 88%
20:00 +22°C° 0.5 mm 0 mps 722 mmHg 89%
21:00 +21°C° 0.5 mm 0 mps 722 mmHg 90%
22:00 +21°C° 0.2 mm 0 mps 722 mmHg 91%
23:00 +23°C° 0.2 mm 1 mps 723 mmHg 91%

4 Marzo, Jueves

Tiempo Temperatura Precipitaciones Viento Presión Humedad
00:00 +23°C° 0.2 mm 1 mps 723 mmHg 92%
01:00 +23°C° 0.1 mm 1 mps 722 mmHg 92%
02:00 +23°C° 0.1 mm 1 mps 722 mmHg 92%
03:00 +23°C° 0.1 mm 1 mps 722 mmHg 93%
04:00 +22°C° 0.4 mm 1 mps 722 mmHg 94%
05:00 +22°C° 0.4 mm 1 mps 722 mmHg 95%
06:00 +22°C° 0.4 mm 1 mps 722 mmHg 96%
07:00 +22°C° 0.5 mm 1 mps 722 mmHg 96%
08:00 +20°C° 0.5 mm 0 mps 723 mmHg 96%
09:00 +21°C° 0.5 mm 0 mps 723 mmHg 96%
10:00 +21°C° 0.5 mm 0 mps 723 mmHg 96%
11:00 +23°C° 0.5 mm 1 mps 723 mmHg 96%
12:00 +23°C° 0.5 mm 1 mps 723 mmHg 96%
13:00 +23°C° 0.7 mm 1 mps 722 mmHg 95%
14:00 +23°C° 0.7 mm 2 mps 722 mmHg 95%
15:00 +24°C° 0.7 mm 2 mps 722 mmHg 94%
16:00 +23°C° 0.5 mm 2 mps 721 mmHg 96%
17:00 +23°C° 0.5 mm 1 mps 721 mmHg 97%
18:00 +22°C° 0.5 mm 1 mps 721 mmHg 98%
19:00 +22°C° 0.9 mm 1 mps 721 mmHg 98%
20:00 +22°C° 0.9 mm 1 mps 721 mmHg 98%
21:00 +22°C° 0.9 mm 1 mps 722 mmHg 98%
22:00 +22°C° 0.1 mm 1 mps 721 mmHg 98%
23:00 +22°C° 0.1 mm 1 mps 721 mmHg 98%

5 Marzo, Viernes

Tiempo Temperatura Precipitaciones Viento Presión Humedad
00:00 +22°C° 0.1 mm 1 mps 721 mmHg 98%
01:00 +22°C° 0.2 mm 1 mps 721 mmHg 98%
02:00 +22°C° 0.2 mm 1 mps 720 mmHg 98%
03:00 +22°C° 0.2 mm 1 mps 720 mmHg 98%
04:00 +22°C° 0 mm 1 mps 720 mmHg 98%
05:00 +22°C° 0 mm 1 mps 720 mmHg 98%
06:00 +21°C° 0 mm 1 mps 720 mmHg 98%
07:00 +22°C° 0.1 mm 1 mps 720 mmHg 96%
08:00 +23°C° 0.1 mm 2 mps 720 mmHg 94%
09:00 +24°C° 0.1 mm 2 mps 721 mmHg 93%
10:00 +25°C° 0.3 mm 3 mps 721 mmHg 90%
11:00 +26°C° 0.3 mm 3 mps 720 mmHg 87%
12:00 +27°C° 0.3 mm 4 mps 720 mmHg 84%
13:00 +26°C° 0.7 mm 4 mps 720 mmHg 86%
14:00 +26°C° 0.7 mm 4 mps 719 mmHg 88%
15:00 +25°C° 0.7 mm 4 mps 719 mmHg 90%
16:00 +23°C° 0.5 mm 4 mps 718 mmHg 92%
17:00 +24°C° 0.5 mm 3 mps 718 mmHg 94%
18:00 +23°C° 0.5 mm 2 mps 718 mmHg 97%
19:00 +23°C° 0.1 mm 2 mps 718 mmHg 97%
20:00 +21°C° 0.1 mm 2 mps 719 mmHg 97%
21:00 +21°C° 0.1 mm 2 mps 719 mmHg 98%
22:00 +21°C° 0 mm 2 mps 719 mmHg 98%
23:00 +21°C° 0 mm 2 mps 719 mmHg 98%

6 Marzo, Sábado

Tiempo Temperatura Precipitaciones Viento Presión Humedad
00:00 +21°C° 0 mm 2 mps 719 mmHg 98%
01:00 +21°C° 0.1 mm 2 mps 718 mmHg 98%
02:00 +21°C° 0.1 mm 2 mps 718 mmHg 98%
03:00 +21°C° 0.1 mm 3 mps 718 mmHg 98%
04:00 +21°C° 0 mm 2 mps 718 mmHg 98%
05:00 +21°C° 0 mm 2 mps 718 mmHg 98%
06:00 +21°C° 0 mm 2 mps 718 mmHg 98%
07:00 +22°C° 0 mm 3 mps 718 mmHg 97%
08:00 +22°C° 0 mm 3 mps 718 mmHg 96%
09:00 +22°C° 0 mm 3 mps 719 mmHg 96%
10:00 +24°C° 0.2 mm 3 mps 719 mmHg 93%
11:00 +25°C° 0.2 mm 3 mps 719 mmHg 90%
12:00 +26°C° 0.2 mm 3 mps 719 mmHg 87%
13:00 +26°C° 0.7 mm 3 mps 718 mmHg 87%
14:00 +26°C° 0.7 mm 3 mps 718 mmHg 87%
15:00 +27°C° 0.7 mm 3 mps 718 mmHg 88%
16:00 +26°C° 0.4 mm 2 mps 717 mmHg 89%
17:00 +26°C° 0.4 mm 2 mps 717 mmHg 90%
18:00 +25°C° 0.4 mm 1 mps 717 mmHg 91%
19:00 +25°C° 0.3 mm 1 mps 717 mmHg 93%
20:00 +22°C° 0.3 mm 0 mps 718 mmHg 94%
21:00 +21°C° 0.3 mm 0 mps 718 mmHg 95%
22:00 +21°C° 0.7 mm 0 mps 718 mmHg 96%
23:00 +21°C° 0.7 mm 0 mps 719 mmHg 96%
Mostrar más

Necesitamos Su Consentimiento

Meteoprog y nuestros Proveedores de Servicios pueden almacenar y acceder a sus datos personales como cookies, identificadores de dispositivo u otras tecnologías similares de su dispositivo y procesar dichos datos para personalizar contenido y anuncios, además de ofrecer funciones de redes sociales y analizar el tráfico.

  • Almacenar y/o acceder a información en su dispositivo

    Se puede almacenar o acceder a cookies, identificadores de dispositivo u otra información de su dispositivo para los fines anteriormente indicados.

  • Anuncios y contenido personalizados, medición de anuncios y contenido, percepciones del público, y desarrollo de productos

    Los anuncios y el contenido pueden personalizarse en base a su perfil. Se pueden añadir más datos para personalizar mejor los anuncios y contenidos. Se puede medir el rendimiento de los anuncios y contenidos. Se puede obtener la percepción sobre el público que ha visto los anuncios y contenidos. Dichos datos pueden usarse para desarrollar o mejorar la experiencia del usuario, sistemas y software.

Al hacer clic en ‘Estoy De Acuerdo’ usted permitirá el uso de las cookies, identificadores de dispositivo, balizas web u otras tecnologías similares indicadas. Su configuración puede cambiarse desde el navegador de su dispositivo.

Para ciertos fines, los intereses legítimos pueden ser considerados por encima del consentimiento. Puede leer más sobre ello en nuestra Política de Privacidad y Cookies.